Regional Weather Roundup
Issued by NWS Lake Charles, LA

Current Version | Previous Version | Text Only | Print | Product List | Glossary On
Versions: 1 2 3 4 5 6 7 8 9 10 11 12 13 14 15 16 17 18 19 20 21 22 23 24 25 26 27 28
000
ASUS44 KLCH 272310
RWRLCH
REGIONAL WEATHER ROUNDUP
NATIONAL WEATHER SERVICE LAKE CHARLES LA
600 PM CDT TUE SEP 27 2016

Note: "fair" indicates few or no clouds below 12,000 feet with no
significant weather and/or obstructions to visibility.


ACROSS SOUTHEAST TEXAS

CITY           SKY/WX    TMP DP  RH WIND       PRES   REMARKS
BEAUMONT       CLOUDY    83  70  64 N8        29.94R
BEAUMONT CITY  FAIR      82  69  64 NW7       29.96R
ORANGE         PTCLDY    81  66  60 N5        29.96R
JASPER         MOSUNNY   82  66  57 NW5       29.99S
$$

ACROSS CENTRAL LOUISIANA

CITY           SKY/WX    TMP DP  RH WIND       PRES   REMARKS
LEESVILLE      MOSUNNY   80  66  63 N6        29.95S
FULLERTON      FAIR      80  67  64 CALM      29.93S
ALEXANDRIA INT CLOUDY    80  62  54 NE6       29.93S
ESLER FIELD    MOSUNNY   78  65  63 VRB3      29.95S
DERIDDER       FAIR      80  64  58 NW7       29.97S
OAKDALE        CLOUDY    81  69  66 NW3       29.94S
OPELOUSAS      FAIR      81  68  65 N5        29.93S
$$

ACROSS SOUTHWEST AND SOUTH CENTRAL LOUISIANA

CITY           SKY/WX    TMP DP  RH WIND       PRES   REMARKS
SULPHUR        MOCLDY    83  70  64 NW6       29.95R
LAKE CHARLES   MOSUNNY   85  70  60 N8        29.94R
CHENNAULT INT  SUNNY     84  70  61 CALM      29.94S
CAMERON PHI    CLEAR     82  72  69 NW5       29.93R
DEQUINCY       FAIR      80  70  70 NW3       29.95S
JENNINGS       MOCLDY    82  70  65 N5        29.94R
LAFAYETTE      MOSUNNY   85  69  58 NE7       29.92S
NEW IBERIA     PTSUNNY   85  69  58 N7        29.92S
ABBEVILLE      FAIR      83  72  69 NW6       29.92S
PATTERSON      SUNNY     84  74  71 N6        29.92R
SALT POINT     NOT AVBL
$$

SELECTED SITES ACROSS THE REGION

CITY           SKY/WX    TMP DP  RH WIND       PRES   REMARKS
HOUSTON BUSH   CLOUDY    82  69  64 N9        29.96S
HOUSTON HOBBY  PTSUNNY   83  69  62 N8        29.95S
GALVESTON      MOSUNNY   83  71  67 N10       29.95S
COLLEGE STAT   MOSUNNY   79  62  56 N10       30.01R
CONROE         CLOUDY    78  67  68 N3        29.99R
HUNTSVILLE     CLOUDY    78  62  57 NW6       30.00S
LUFKIN         CLOUDY    80  60  50 NE5       29.98S
SHREVEPORT     CLOUDY    77  59  53 W6        29.98F
MONROE         CLOUDY    79  57  46 N7        29.96S
NATCHEZ MS     CLOUDY    79  63  57 CALM      29.94F
BATON ROUGE    MOSUNNY   85  71  63 N7        29.91S
N.O. INTL ARPT PTSUNNY   87  73  62 NW3       29.90R
SLIDELL        CLEAR     85  72  65 NW3       29.89S
$$

MARINE REPORTS

STATION/POSITION TIME  SKY/WX   TEMP    WIND        PRES    VSBY
                                AIR SEA DIR/SP/G
                 (UTC)          (F)     (DEG/KT/KT) (MB)    (MI)
BUOY 30 S HIGH I 2250            81 86  270/  2/  4 1014.3S
WVE H/P(F/S)=  2/ 6

SEA RIM ST PARK  2300            82      10/  7/  8 1014.4R
PORT ARTHUR      2200               86  340/  7/  9 1013.8F
SABINE PASS N    2200            83 86   30/  4/  6 1015.1F
TEXAS POINT      NOT AVBL
CALCASIEU PASS   2200            83 85   10/  8/ 10 1012.5F
LK CHARLES BEACH 2200            84 85              1013.9F
MARSH ISLAND     2200            82                   N/A
FRESH WATER LOCK 2200            84 87  280/  6/  8 1013.9S
AMERADA PASS     2200            81 86  300/  4/  6 1012.9R
$$




USA.gov is the U.S. government's official web portal to all federal, state and local government web resources and services.